This demonstration page uses our WeatherBlox Daily Observations layout. Learn more.

Left ArrowRight Arrow

44.89941, -97.11507

Hourly Observations for September 20, 2018

Temp ( °F °C ) Dew Point ( °F °C ) Humidity (%) Winds ( mph kmh ) Pressure ( in mb ) Visibility ( mi km ) Precip ( " mm )
12:53 am 00:53 Cloudy 54 12.2 54 12.2 100 100 ENE 14 22 29.97 1015 10 16 0.00 0.00
1:07 am 01:07 Cloudy 54 12.2 54 12.2 100 100 NE 16 26 29.97 1015 10 16 0.00 0.00
1:18 am 01:18 Cloudy 54 12.2 54 12.2 100 100 ENE 13 20 29.97 1015 10 16 0.00 0.00
1:53 am 01:53 Cloudy with Light Rain 54 12.2 54 12.2 100 100 ENE 14 22 29.97 1015 10 16 0.00 0.03
2:53 am 02:53 Cloudy with Light Rain 54 12.2 54 12.2 100 100 E 7 11 29.96 1015 10 16 0.01 0.25
3:53 am 03:53 Cloudy with Rain 53 11.7 53 11.7 100 100 ENE 10 17 29.94 1014 5 8 0.08 2.03
4:53 am 04:53 Cloudy with Light Rain 53 11.7 53 11.7 100 100 NE 13 20 29.91 1013 7 11 0.11 2.79
5:34 am 05:34 Cloudy with Rain 53 11.7 53 11.7 100 100 ENE 12 19 29.91 1013 5 8 0.08 2.03
5:53 am 05:53 Cloudy with Light Rain 53 11.7 53 11.7 100 100 ENE 14 22 29.91 1013 7 11 0.12 3.05
6:53 am 06:53 Cloudy with Rain 53 11.7 53 11.7 100 100 ENE 12 19 29.91 1013 6 10 0.10 2.54
7:40 am 07:40 Cloudy with Rain 53 11.7 53 11.7 100 100 E 13 20 29.88 1012 6 10 0.13 3.30
7:53 am 07:53 Cloudy with Light Rain 53 11.7 53 11.7 100 100 ENE 16 26 29.86 1011 5 8 0.15 3.81
8:30 am 08:30 Cloudy with Light Rain 53 11.7 53 11.7 100 100 ENE 13 20 29.83 1010 10 16 0.02 0.51
8:43 am 08:43 Cloudy with Light Rain 53 11.7 53 11.7 100 100 ENE 13 20 29.83 1010 10 16 0.03 0.76
8:53 am 08:53 Cloudy with Light Rain 53 11.7 53 11.7 100 100 ENE 15 24 29.85 1011 10 16 0.04 1.02
9:39 am 09:39 Cloudy with Rain 54 12.2 54 12.2 100 100 E 10 17 29.83 1010 7 11 0.04 1.02
9:53 am 09:53 Cloudy with Light Rain 54 12.2 54 12.2 100 100 E 13 20 29.83 1010 10 16 0.05 1.27
10:44 am 10:44 Cloudy with Light Rain 55 12.8 55 12.8 100 100 E 10 17 29.83 1010 9 14 0.01 0.25
10:53 am 10:53 Cloudy with Light Rain 56 13.3 56 13.3 100 100 E 6 9 29.81 1010 9 14 0.02 0.51
11:53 am 11:53 Cloudy 57 13.9 57 13.9 100 100 E 8 13 29.76 1008 10 16 0.00 0.03
12:53 pm 12:53 Cloudy 59 15 59 15 100 100 E 8 13 29.72 1006 10 16 0.00 0.00
1:53 pm 13:53 Cloudy 59 15 59 15 100 100 E 8 13 29.68 1005 10 16 0.00 0.00
2:36 pm 14:36 Cloudy with Mist and Fog 58 14.4 58 14.4 100 100 NE 9 15 29.65 1004 5 8 0.00 0.00
2:53 pm 14:53 Cloudy with Mist and Fog 58 14.4 58 14.4 100 100 ENE 10 17 29.64 1004 3 5 0.00 0.00
3:53 pm 15:53 Cloudy with Light Rain 59 15 59 15 100 100 E 7 11 29.62 1003 5 8 0.00 0.03
4:40 pm 16:40 Cloudy with Mist and Fog 59 15 59 15 100 100 Calm 29.59 1002 3 4 0.00 0.03
4:53 pm 16:53 Cloudy with Light Rain 59 15 59 15 100 100 Calm 29.62 1003 2 3 0.01 0.25
5:25 pm 17:25 Cloudy with Light Rain 59 15 59 15 100 100 NNW 13 20 29.59 1002 7 11 0.03 0.76
5:48 pm 17:48 Cloudy 59 15 59 15 100 100 NNW 13 20 29.59 1002 10 16 0.03 0.76
5:53 pm 17:53 Cloudy 59 15 59 15 100 100 NNW 12 19 29.62 1003 10 16 0.03 0.76
6:53 pm 18:53 Cloudy 57 13.9 57 13.9 100 100 N 8 13 29.61 1003 10 16 0.00 0.00
7:53 pm 19:53 Cloudy 56 13.3 56 13.3 100 100 WNW 12 19 29.66 1004 10 16 0.00 0.00
8:53 pm 20:53 Cloudy with Mist and Fog 55 12.8 55 12.8 100 100 WNW 17 28 29.70 1006 6 10 0.00 0.00
9:12 pm 21:12 Cloudy with Mist and Fog 54 12.2 54 12.2 100 100 WNW 17 28 29.71 1006 3 5 0.00 0.00
9:28 pm 21:28 Cloudy with Mist and Fog 54 12.2 54 12.2 100 100 WNW 14 22 29.71 1006 5 8 0.00 0.00
9:53 pm 21:53 Cloudy 53 11.7 53 11.7 100 100 WNW 17 28 29.73 1007 9 14 0.00 0.00
10:53 pm 22:53 Cloudy 52 11.1 52 11.1 100 100 WNW 13 20 29.75 1008 8 13 0.00 0.00
11:53 pm 23:53 Cloudy 51 10.6 50 10 96 96 WNW 21 33 29.79 1009 10 16 0.00 0.00

Powered by AerisWeather